Year,Month,Day,Hour,Minute,Value (Times are PST for windgust in km/hr)
2019,06,17,00,00,9.60
2019,06,17,00,01,8.10
2019,06,17,00,02,6.40
2019,06,17,00,03,4.80
2019,06,17,00,04,3.20
2019,06,17,00,05,6.40
2019,06,17,00,06,6.40
2019,06,17,00,07,3.20
2019,06,17,00,08,9.60
2019,06,17,00,09,8.10
2019,06,17,00,10,6.40
2019,06,17,00,11,4.80
2019,06,17,00,12,6.40
2019,06,17,00,13,9.60
2019,06,17,00,14,9.60
2019,06,17,00,15,6.40
2019,06,17,00,16,4.80
2019,06,17,00,17,8.10
2019,06,17,00,18,4.80
2019,06,17,00,19,6.40
2019,06,17,00,20,6.40
2019,06,17,00,21,4.80
2019,06,17,00,22,6.40
2019,06,17,00,23,9.60
2019,06,17,00,24,12.90
2019,06,17,00,25,4.80
2019,06,17,00,26,6.40
2019,06,17,00,27,3.20
2019,06,17,00,28,6.40
2019,06,17,00,29,4.80
2019,06,17,00,30,3.20
2019,06,17,00,31,6.40
2019,06,17,00,32,3.20
2019,06,17,00,33,3.20
2019,06,17,00,34,4.80
2019,06,17,00,35,3.20
2019,06,17,00,36,6.40
2019,06,17,00,37,8.10
2019,06,17,00,38,8.10
2019,06,17,00,39,8.10
2019,06,17,00,40,8.10
2019,06,17,00,41,6.40
2019,06,17,00,42,6.40
2019,06,17,00,43,8.10
2019,06,17,00,44,12.90
2019,06,17,00,45,8.10
2019,06,17,00,46,1.60
2019,06,17,00,47,8.10
2019,06,17,00,48,9.60
2019,06,17,00,49,4.80
2019,06,17,00,50,6.40
2019,06,17,00,51,9.60
2019,06,17,00,52,8.10
2019,06,17,00,53,8.10
2019,06,17,00,54,4.80
2019,06,17,00,55,8.10
2019,06,17,00,56,4.80
2019,06,17,00,57,6.40
2019,06,17,00,58,6.40
2019,06,17,00,59,4.80
2019,06,17,01,00,4.80
2019,06,17,01,01,4.80
2019,06,17,01,02,3.20
2019,06,17,01,03,3.20
2019,06,17,01,05,3.20
2019,06,17,01,13,4.80
2019,06,17,01,14,6.40
2019,06,17,01,15,3.20
2019,06,17,01,16,3.20
2019,06,17,01,17,1.60
2019,06,17,01,18,6.40
2019,06,17,01,19,4.80
2019,06,17,01,20,4.80
2019,06,17,01,21,3.20
2019,06,17,01,22,4.80
2019,06,17,01,23,6.40
2019,06,17,01,24,3.20
2019,06,17,01,28,1.60
2019,06,17,01,29,9.60
2019,06,17,01,30,8.10
2019,06,17,01,31,6.40
2019,06,17,01,32,6.40
2019,06,17,01,33,4.80
2019,06,17,01,34,6.40
2019,06,17,01,35,6.40
2019,06,17,01,36,4.80
2019,06,17,01,37,4.80
2019,06,17,01,38,3.20
2019,06,17,01,40,3.20
2019,06,17,01,41,4.80
2019,06,17,01,42,1.60
2019,06,17,01,43,1.60
2019,06,17,01,44,3.20
2019,06,17,01,45,4.80
2019,06,17,01,46,1.60
2019,06,17,01,49,4.80
2019,06,17,01,50,4.80
2019,06,17,01,51,4.80
2019,06,17,01,52,4.80
2019,06,17,01,56,3.20
2019,06,17,02,13,4.80
2019,06,17,02,14,4.80
2019,06,17,02,15,4.80
2019,06,17,02,16,8.10
2019,06,17,02,17,8.10
2019,06,17,02,18,4.80
2019,06,17,02,19,4.80
2019,06,17,02,20,3.20
2019,06,17,02,21,6.40
2019,06,17,02,22,9.60
2019,06,17,02,23,6.40
2019,06,17,02,24,6.40
2019,06,17,02,25,4.80
2019,06,17,02,26,4.80
2019,06,17,02,27,4.80
2019,06,17,02,28,3.20
2019,06,17,02,29,4.80
2019,06,17,02,30,6.40
2019,06,17,02,31,3.20
2019,06,17,02,32,3.20
2019,06,17,02,33,3.20
2019,06,17,02,34,6.40
2019,06,17,02,35,8.10
2019,06,17,02,36,8.10
2019,06,17,02,37,4.80
2019,06,17,02,38,4.80
2019,06,17,02,39,8.10
2019,06,17,02,40,4.80
2019,06,17,02,41,6.40
2019,06,17,02,42,8.10
2019,06,17,02,43,8.10
2019,06,17,02,44,6.40
2019,06,17,02,45,8.10
2019,06,17,02,46,3.20
2019,06,17,02,47,4.80
2019,06,17,02,48,4.80
2019,06,17,02,49,3.20
2019,06,17,02,50,3.20
2019,06,17,02,58,4.80
2019,06,17,02,59,3.20
2019,06,17,03,00,4.80
2019,06,17,03,01,6.40
2019,06,17,03,02,4.80
2019,06,17,03,04,4.80
2019,06,17,03,05,4.80
2019,06,17,03,06,4.80
2019,06,17,03,07,3.20
2019,06,17,03,08,4.80
2019,06,17,03,09,8.10
2019,06,17,03,10,8.10
2019,06,17,03,11,4.80
2019,06,17,03,12,3.20
2019,06,17,03,13,3.20
2019,06,17,03,14,4.80
2019,06,17,03,15,4.80
2019,06,17,03,16,1.60
2019,06,17,03,17,6.40
2019,06,17,03,18,8.10
2019,06,17,03,19,6.40
2019,06,17,03,20,4.80
2019,06,17,03,21,6.40
2019,06,17,03,22,8.10
2019,06,17,03,23,6.40
2019,06,17,03,24,4.80
2019,06,17,03,25,3.20
2019,06,17,03,26,4.80
2019,06,17,03,27,4.80
2019,06,17,03,40,4.80
2019,06,17,03,41,6.40
2019,06,17,03,42,6.40
2019,06,17,03,43,8.10
2019,06,17,03,44,4.80
2019,06,17,03,45,4.80
2019,06,17,03,46,3.20
2019,06,17,03,47,1.60
2019,06,17,03,48,3.20
2019,06,17,03,49,6.40
2019,06,17,03,50,8.10
2019,06,17,03,51,4.80
2019,06,17,03,52,8.10
2019,06,17,03,53,9.60
2019,06,17,03,54,9.60
2019,06,17,03,55,3.20
2019,06,17,03,56,1.60
2019,06,17,04,00,4.80
2019,06,17,04,01,4.80
2019,06,17,04,02,8.10
2019,06,17,04,03,4.80
2019,06,17,04,04,6.40
2019,06,17,04,05,4.80
2019,06,17,04,06,4.80
2019,06,17,04,07,6.40
2019,06,17,04,08,8.10
2019,06,17,04,09,6.40
2019,06,17,04,10,4.80
2019,06,17,04,11,6.40
2019,06,17,04,12,8.10
2019,06,17,04,13,4.80
2019,06,17,04,14,4.80
2019,06,17,04,15,3.20
2019,06,17,04,16,4.80
2019,06,17,04,17,6.40
2019,06,17,04,18,1.60
2019,06,17,04,21,4.80
2019,06,17,04,22,4.80
2019,06,17,04,23,3.20
2019,06,17,04,24,4.80
2019,06,17,04,25,4.80
2019,06,17,04,26,4.80
2019,06,17,04,27,4.80
2019,06,17,04,28,3.20
2019,06,17,04,29,4.80
2019,06,17,04,30,6.40
2019,06,17,04,31,6.40
2019,06,17,04,32,4.80
2019,06,17,04,44,3.20
2019,06,17,04,45,3.20
2019,06,17,04,46,3.20
2019,06,17,04,47,3.20
2019,06,17,04,48,3.20
2019,06,17,04,49,1.60
2019,06,17,04,54,3.20
2019,06,17,04,55,1.60
2019,06,17,04,58,1.60
2019,06,17,05,16,4.80
2019,06,17,05,17,4.80
2019,06,17,05,18,3.20
2019,06,17,06,07,3.20
2019,06,17,06,08,3.20
2019,06,17,06,09,3.20
2019,06,17,06,12,3.20
2019,06,17,06,13,1.60
2019,06,17,06,14,1.60
2019,06,17,06,15,1.60
2019,06,17,06,16,3.20
2019,06,17,06,17,6.40
2019,06,17,06,18,6.40
2019,06,17,06,19,3.20
2019,06,17,06,20,1.60
2019,06,17,06,27,4.80
2019,06,17,06,28,6.40
2019,06,17,06,29,4.80
2019,06,17,06,30,6.40
2019,06,17,06,31,4.80
2019,06,17,06,32,4.80
2019,06,17,06,33,4.80
2019,06,17,06,34,6.40
2019,06,17,06,35,4.80
2019,06,17,06,36,6.40
2019,06,17,06,37,6.40
2019,06,17,06,38,8.10
2019,06,17,06,39,8.10
2019,06,17,06,40,8.10
2019,06,17,06,41,8.10
2019,06,17,06,42,8.10
2019,06,17,06,43,4.80
2019,06,17,06,44,4.80
2019,06,17,06,45,4.80
2019,06,17,06,46,6.40
2019,06,17,06,47,4.80
2019,06,17,06,48,4.80
2019,06,17,06,49,4.80
2019,06,17,06,50,4.80
2019,06,17,06,51,1.60
2019,06,17,07,00,3.20
2019,06,17,07,01,3.20
2019,06,17,07,02,4.80
2019,06,17,07,03,4.80
2019,06,17,07,05,3.20
2019,06,17,07,10,6.40
2019,06,17,07,11,6.40
2019,06,17,07,12,6.40
2019,06,17,07,13,9.60
2019,06,17,07,14,8.10
2019,06,17,07,15,6.40
2019,06,17,07,17,1.60
2019,06,17,07,43,8.10
2019,06,17,07,44,8.10
2019,06,17,07,45,6.40
2019,06,17,07,46,8.10
2019,06,17,07,47,8.10
2019,06,17,07,48,8.10
2019,06,17,07,49,8.10
2019,06,17,07,50,6.40
2019,06,17,07,51,4.80
2019,06,17,07,52,8.10
2019,06,17,07,53,6.40
2019,06,17,07,54,4.80
2019,06,17,07,55,3.20
2019,06,17,07,56,4.80
2019,06,17,07,57,4.80
2019,06,17,07,58,4.80
2019,06,17,07,59,3.20
2019,06,17,08,00,6.40
2019,06,17,08,01,4.80
2019,06,17,08,02,8.10
2019,06,17,08,03,8.10
2019,06,17,08,04,6.40
2019,06,17,08,05,3.20
2019,06,17,08,06,3.20
2019,06,17,08,08,4.80
2019,06,17,08,09,4.80
2019,06,17,08,10,4.80
2019,06,17,08,11,3.20
2019,06,17,08,12,6.40
2019,06,17,08,13,6.40
2019,06,17,08,14,6.40
2019,06,17,08,15,8.10
2019,06,17,08,16,8.10
2019,06,17,08,17,6.40
2019,06,17,08,18,6.40
2019,06,17,08,19,8.10
2019,06,17,08,20,8.10
2019,06,17,08,21,6.40
2019,06,17,08,22,4.80
2019,06,17,08,23,3.20
2019,06,17,08,24,3.20
2019,06,17,08,25,6.40
2019,06,17,08,26,4.80
2019,06,17,08,27,6.40
2019,06,17,08,28,4.80
2019,06,17,08,29,3.20
2019,06,17,08,30,8.10
2019,06,17,08,31,4.80
2019,06,17,08,32,6.40
2019,06,17,08,33,4.80
2019,06,17,08,34,8.10
2019,06,17,08,35,4.80
2019,06,17,08,36,6.40
2019,06,17,08,37,6.40
2019,06,17,08,38,8.10
2019,06,17,08,39,6.40
2019,06,17,08,40,9.60
2019,06,17,08,41,6.40
2019,06,17,08,42,6.40
2019,06,17,08,43,6.40
2019,06,17,08,44,3.20
2019,06,17,08,45,3.20
2019,06,17,08,46,3.20
2019,06,17,08,47,6.40
2019,06,17,08,48,4.80
2019,06,17,08,49,8.10
2019,06,17,08,50,8.10
2019,06,17,08,51,6.40
2019,06,17,08,52,6.40
2019,06,17,08,53,8.10
2019,06,17,08,54,11.30
2019,06,17,08,55,12.90
2019,06,17,08,56,9.60
2019,06,17,08,57,6.40
2019,06,17,08,58,3.20
2019,06,17,09,01,1.60
2019,06,17,09,02,3.20
2019,06,17,09,03,9.60
2019,06,17,09,04,6.40
2019,06,17,09,05,9.60
2019,06,17,09,06,8.10
2019,06,17,09,07,3.20
2019,06,17,09,08,8.10
2019,06,17,09,09,6.40
2019,06,17,09,10,4.80
2019,06,17,09,11,4.80
2019,06,17,09,12,8.10
2019,06,17,09,13,8.10
2019,06,17,09,14,8.10
2019,06,17,09,15,6.40
2019,06,17,09,16,9.60
2019,06,17,09,17,6.40
2019,06,17,09,18,6.40
2019,06,17,09,19,11.30
2019,06,17,09,20,9.60
2019,06,17,09,21,11.30
2019,06,17,09,22,9.60
2019,06,17,09,23,9.60
2019,06,17,09,24,12.90
2019,06,17,09,25,9.60
2019,06,17,09,26,8.10
2019,06,17,09,27,6.40
2019,06,17,09,28,11.30
2019,06,17,09,29,12.90
2019,06,17,09,30,12.90
2019,06,17,09,31,4.80
2019,06,17,09,32,9.60
2019,06,17,09,33,6.40
2019,06,17,09,34,3.20
2019,06,17,09,35,6.40
2019,06,17,09,36,4.80
2019,06,17,09,37,8.10
2019,06,17,09,38,11.30
2019,06,17,09,39,9.60
2019,06,17,09,40,11.30
2019,06,17,09,41,8.10
2019,06,17,09,42,8.10
2019,06,17,09,43,9.60
2019,06,17,09,44,8.10
2019,06,17,09,45,8.10
2019,06,17,09,46,9.60
2019,06,17,09,47,8.10
2019,06,17,09,48,12.90
2019,06,17,09,49,14.50
2019,06,17,09,50,14.50
2019,06,17,09,51,8.10
2019,06,17,09,52,8.10
2019,06,17,09,53,16.10
2019,06,17,09,54,11.30
2019,06,17,09,55,4.80
2019,06,17,09,56,16.10
2019,06,17,09,57,12.90
2019,06,17,09,58,12.90
2019,06,17,09,59,16.10
2019,06,17,10,00,14.50
2019,06,17,10,01,9.60
2019,06,17,10,02,8.10
2019,06,17,10,03,14.50
2019,06,17,10,04,12.90
2019,06,17,10,05,16.10
2019,06,17,10,06,22.50
2019,06,17,10,07,17.70
2019,06,17,10,08,12.90
2019,06,17,10,09,17.70
2019,06,17,10,10,16.10
2019,06,17,10,11,12.90
2019,06,17,10,12,17.70
2019,06,17,10,13,17.70
2019,06,17,10,14,17.70
2019,06,17,10,15,19.30
2019,06,17,10,16,16.10
2019,06,17,10,17,17.70
2019,06,17,10,18,17.70
2019,06,17,10,19,17.70
2019,06,17,10,20,17.70
2019,06,17,10,21,19.30
2019,06,17,10,22,24.20
2019,06,17,10,23,17.70
2019,06,17,10,24,16.10
2019,06,17,10,25,17.70
2019,06,17,10,26,17.70
2019,06,17,10,27,19.30
2019,06,17,10,28,14.50
2019,06,17,10,29,17.70
2019,06,17,10,30,20.90
2019,06,17,10,31,14.50
2019,06,17,10,32,27.40
2019,06,17,10,33,22.50
2019,06,17,10,34,20.90
2019,06,17,10,35,19.30
2019,06,17,10,36,12.90
2019,06,17,10,37,11.30
2019,06,17,10,38,17.70
2019,06,17,10,39,19.30
2019,06,17,10,40,22.50
2019,06,17,10,41,22.50
2019,06,17,10,42,16.10
2019,06,17,10,43,12.90
2019,06,17,10,44,14.50
2019,06,17,10,45,11.30
2019,06,17,10,46,11.30
2019,06,17,10,47,24.20
2019,06,17,10,48,19.30
2019,06,17,10,49,16.10
2019,06,17,10,50,17.70
2019,06,17,10,51,17.70
2019,06,17,10,52,6.40
2019,06,17,10,53,17.70
2019,06,17,10,54,19.30
2019,06,17,10,55,9.60
2019,06,17,10,56,14.50
2019,06,17,10,57,6.40
2019,06,17,10,58,6.40
2019,06,17,10,59,14.50
2019,06,17,11,00,17.70
2019,06,17,11,01,16.10
2019,06,17,11,02,20.90
2019,06,17,11,03,14.50
2019,06,17,11,04,17.70
2019,06,17,11,05,14.50
2019,06,17,11,06,12.90
2019,06,17,11,07,9.60
2019,06,17,11,08,9.60
2019,06,17,11,09,14.50
2019,06,17,11,10,12.90
2019,06,17,11,11,22.50
2019,06,17,11,12,8.10
2019,06,17,11,13,9.60
2019,06,17,11,14,12.90
2019,06,17,11,15,19.30
2019,06,17,11,16,9.60
2019,06,17,11,17,14.50
2019,06,17,11,18,6.40
2019,06,17,11,19,12.90
2019,06,17,11,20,17.70
2019,06,17,11,21,16.10
2019,06,17,11,22,8.10
2019,06,17,11,23,12.90
2019,06,17,11,24,8.10
2019,06,17,11,25,20.90
2019,06,17,11,26,8.10
2019,06,17,11,27,14.50
2019,06,17,11,28,11.30
2019,06,17,11,29,9.60
2019,06,17,11,30,8.10
2019,06,17,11,31,19.30
2019,06,17,11,32,19.30
2019,06,17,11,33,16.10
2019,06,17,11,34,14.50
2019,06,17,11,35,8.10
2019,06,17,11,36,12.90
2019,06,17,11,37,4.80
2019,06,17,11,38,6.40
2019,06,17,11,39,9.60
2019,06,17,11,40,19.30
2019,06,17,11,41,9.60
2019,06,17,11,42,9.60
2019,06,17,11,43,16.10
2019,06,17,11,44,19.30
2019,06,17,11,45,20.90
2019,06,17,11,46,25.70
2019,06,17,11,47,20.90
2019,06,17,11,48,17.70
2019,06,17,11,49,14.50
2019,06,17,11,50,22.50
2019,06,17,11,51,24.20
2019,06,17,11,52,27.40
2019,06,17,11,53,25.70
2019,06,17,11,54,24.20
2019,06,17,11,55,12.90
2019,06,17,11,56,20.90
2019,06,17,11,57,19.30
2019,06,17,11,58,24.20
2019,06,17,11,59,19.30
2019,06,17,12,00,12.90
2019,06,17,12,01,19.30
2019,06,17,12,02,22.50
2019,06,17,12,03,37.00
2019,06,17,12,04,19.30
2019,06,17,12,05,22.50
2019,06,17,12,06,19.30
2019,06,17,12,07,17.70
2019,06,17,12,08,19.30
2019,06,17,12,09,29.00
2019,06,17,12,10,12.90
2019,06,17,12,11,16.10
2019,06,17,12,12,17.70
2019,06,17,12,13,25.70
2019,06,17,12,14,29.00
2019,06,17,12,15,27.40
2019,06,17,12,16,22.50
2019,06,17,12,17,16.10
2019,06,17,12,18,17.70
2019,06,17,12,19,22.50
2019,06,17,12,20,24.20
2019,06,17,12,21,24.20
2019,06,17,12,22,14.50
2019,06,17,12,23,30.60
2019,06,17,12,24,25.70
2019,06,17,12,25,20.90
2019,06,17,12,26,25.70
2019,06,17,12,27,27.40
2019,06,17,12,28,12.90
2019,06,17,12,29,22.50
2019,06,17,12,30,32.20
2019,06,17,12,31,24.20
2019,06,17,12,32,17.70
2019,06,17,12,33,35.40
2019,06,17,12,34,22.50
2019,06,17,12,35,19.30
2019,06,17,12,36,25.70
2019,06,17,12,37,25.70
2019,06,17,12,38,24.20
2019,06,17,12,39,19.30
2019,06,17,12,40,27.40
2019,06,17,12,41,17.70
2019,06,17,12,42,35.40
2019,06,17,12,43,17.70
2019,06,17,12,44,24.20
2019,06,17,12,45,30.60
2019,06,17,12,46,20.90
2019,06,17,12,47,16.10
2019,06,17,12,48,22.50
2019,06,17,12,49,30.60
2019,06,17,12,50,29.00
2019,06,17,12,51,27.40
2019,06,17,12,52,17.70
2019,06,17,12,53,20.90
2019,06,17,12,54,27.40
2019,06,17,12,55,27.40
2019,06,17,12,56,16.10
2019,06,17,12,57,17.70
2019,06,17,12,58,22.50
2019,06,17,12,59,22.50
2019,06,17,13,00,24.20
2019,06,17,13,01,25.70
2019,06,17,13,02,24.20
2019,06,17,13,03,20.90
2019,06,17,13,04,32.20
2019,06,17,13,05,27.40
2019,06,17,13,06,27.40
2019,06,17,13,07,19.30
2019,06,17,13,08,24.20
2019,06,17,13,09,14.50
2019,06,17,13,10,25.70
2019,06,17,13,11,25.70
2019,06,17,13,12,16.10
2019,06,17,13,13,29.00
2019,06,17,13,14,17.70
2019,06,17,13,15,24.20
2019,06,17,13,16,24.20
2019,06,17,13,17,20.90
2019,06,17,13,18,14.50
2019,06,17,13,19,27.40
2019,06,17,13,20,25.70
2019,06,17,13,21,29.00
2019,06,17,13,22,22.50
2019,06,17,13,23,17.70
2019,06,17,13,24,24.20
2019,06,17,13,25,12.90
2019,06,17,13,26,17.70
2019,06,17,13,27,16.10
2019,06,17,13,28,20.90
2019,06,17,13,29,30.60
2019,06,17,13,30,12.90
2019,06,17,13,31,20.90
2019,06,17,13,32,30.60
2019,06,17,13,33,19.30
2019,06,17,13,34,24.20
2019,06,17,13,35,24.20
2019,06,17,13,36,17.70
2019,06,17,13,37,17.70
2019,06,17,13,38,22.50
2019,06,17,13,39,19.30
2019,06,17,13,40,8.10
2019,06,17,13,41,14.50
2019,06,17,13,42,33.80
2019,06,17,13,43,16.10
2019,06,17,13,44,11.30
2019,06,17,13,45,19.30
2019,06,17,13,46,16.10
2019,06,17,13,47,14.50
2019,06,17,13,48,22.50
2019,06,17,13,49,24.20
2019,06,17,13,50,25.70
2019,06,17,13,51,16.10
2019,06,17,13,52,11.30
2019,06,17,13,53,9.60
2019,06,17,13,54,11.30
2019,06,17,13,55,19.30
2019,06,17,13,56,30.60
2019,06,17,13,57,6.40
2019,06,17,13,58,29.00
2019,06,17,13,59,24.20
2019,06,17,14,00,22.50
2019,06,17,14,01,14.50
2019,06,17,14,02,16.10
2019,06,17,14,03,20.90
2019,06,17,14,04,16.10
2019,06,17,14,05,20.90
2019,06,17,14,06,11.30
2019,06,17,14,07,16.10
2019,06,17,14,08,19.30
2019,06,17,14,09,11.30
2019,06,17,14,10,6.40
2019,06,17,14,11,16.10
2019,06,17,14,12,11.30
2019,06,17,14,13,11.30
2019,06,17,14,14,17.70
2019,06,17,14,15,14.50
2019,06,17,14,16,14.50
2019,06,17,14,17,12.90
2019,06,17,14,18,17.70
2019,06,17,14,19,20.90
2019,06,17,14,20,22.50
2019,06,17,14,21,22.50
2019,06,17,14,22,27.40
2019,06,17,14,23,35.40
2019,06,17,14,24,27.40
2019,06,17,14,25,12.90
2019,06,17,14,26,25.70
2019,06,17,14,27,14.50
2019,06,17,14,28,17.70
2019,06,17,14,29,22.50
2019,06,17,14,30,30.60
2019,06,17,14,31,14.50
2019,06,17,14,32,22.50
2019,06,17,14,33,19.30
2019,06,17,14,34,29.00
2019,06,17,14,35,14.50
2019,06,17,14,36,22.50
2019,06,17,14,37,24.20
2019,06,17,14,38,22.50
2019,06,17,14,39,24.20
2019,06,17,14,40,32.20
2019,06,17,14,41,17.70
2019,06,17,14,42,20.90
2019,06,17,14,43,35.40
2019,06,17,14,44,24.20
2019,06,17,14,45,25.70
2019,06,17,14,46,25.70
2019,06,17,14,47,20.90
2019,06,17,14,48,25.70
2019,06,17,14,49,32.20
2019,06,17,14,50,16.10
2019,06,17,14,51,25.70
2019,06,17,14,52,24.20
2019,06,17,14,53,19.30
2019,06,17,14,54,16.10
2019,06,17,14,55,33.80
2019,06,17,14,56,20.90
2019,06,17,14,57,27.40
2019,06,17,14,58,19.30
2019,06,17,14,59,25.70
2019,06,17,15,00,25.70
2019,06,17,15,01,27.40
2019,06,17,15,02,25.70
2019,06,17,15,03,14.50
2019,06,17,15,04,20.90
2019,06,17,15,05,16.10
2019,06,17,15,06,17.70
2019,06,17,15,07,16.10
2019,06,17,15,08,14.50
2019,06,17,15,09,24.20
2019,06,17,15,10,17.70
2019,06,17,15,11,29.00
2019,06,17,15,12,24.20
2019,06,17,15,13,22.50
2019,06,17,15,14,33.80
2019,06,17,15,15,37.00
2019,06,17,15,16,19.30
2019,06,17,15,17,22.50
2019,06,17,15,18,8.10
2019,06,17,15,19,11.30
2019,06,17,15,20,16.10
2019,06,17,15,21,20.90
2019,06,17,15,22,29.00
2019,06,17,15,23,27.40
2019,06,17,15,24,25.70
2019,06,17,15,25,24.20
2019,06,17,15,26,22.50
2019,06,17,15,27,16.10
2019,06,17,15,28,9.60
2019,06,17,15,29,14.50
2019,06,17,15,30,22.50
2019,06,17,15,31,8.10
2019,06,17,15,32,24.20
2019,06,17,15,33,25.70
2019,06,17,15,34,24.20
2019,06,17,15,35,22.50
2019,06,17,15,36,22.50
2019,06,17,15,37,25.70
2019,06,17,15,38,22.50
2019,06,17,15,39,19.30
2019,06,17,15,40,20.90
2019,06,17,15,41,29.00
2019,06,17,15,42,22.50
2019,06,17,15,43,30.60
2019,06,17,15,44,25.70
2019,06,17,15,45,19.30
2019,06,17,15,46,25.70
2019,06,17,15,47,19.30
2019,06,17,15,48,17.70
2019,06,17,15,49,33.80
2019,06,17,15,50,17.70
2019,06,17,15,51,14.50
2019,06,17,15,52,16.10
2019,06,17,15,53,17.70
2019,06,17,15,54,25.70
2019,06,17,15,55,25.70
2019,06,17,15,56,27.40
2019,06,17,15,57,20.90
2019,06,17,15,58,20.90
2019,06,17,15,59,25.70
2019,06,17,16,00,25.70
2019,06,17,16,01,24.20
2019,06,17,16,02,29.00
2019,06,17,16,03,24.20
2019,06,17,16,04,17.70
2019,06,17,16,05,11.30
2019,06,17,16,06,27.40
2019,06,17,16,07,16.10
2019,06,17,16,08,17.70
2019,06,17,16,09,17.70
2019,06,17,16,10,27.40
2019,06,17,16,11,29.00
2019,06,17,16,12,20.90
2019,06,17,16,13,19.30
2019,06,17,16,14,22.50
2019,06,17,16,15,14.50
2019,06,17,16,16,25.70
2019,06,17,16,17,22.50
2019,06,17,16,18,27.40
2019,06,17,16,19,37.00
2019,06,17,16,20,22.50
2019,06,17,16,21,20.90
2019,06,17,16,22,19.30
2019,06,17,16,23,22.50
2019,06,17,16,24,24.20
2019,06,17,16,25,25.70
2019,06,17,16,26,16.10
2019,06,17,16,27,24.20
2019,06,17,16,28,22.50
2019,06,17,16,29,12.90
2019,06,17,16,30,19.30
2019,06,17,16,31,22.50
2019,06,17,16,32,14.50
2019,06,17,16,33,30.60
2019,06,17,16,34,25.70
2019,06,17,16,35,12.90
2019,06,17,16,36,14.50
2019,06,17,16,37,14.50
2019,06,17,16,38,17.70
2019,06,17,16,39,14.50
2019,06,17,16,40,17.70
2019,06,17,16,41,12.90
2019,06,17,16,42,19.30
2019,06,17,16,43,20.90
2019,06,17,16,44,12.90
2019,06,17,16,45,14.50
2019,06,17,16,46,22.50
2019,06,17,16,47,25.70
2019,06,17,16,48,32.20
2019,06,17,16,49,22.50
2019,06,17,16,50,17.70
2019,06,17,16,51,22.50
2019,06,17,16,52,17.70
2019,06,17,16,53,27.40
2019,06,17,16,54,22.50
2019,06,17,16,55,22.50
2019,06,17,16,56,30.60
2019,06,17,16,57,19.30
2019,06,17,16,58,17.70
2019,06,17,16,59,29.00
2019,06,17,17,00,20.90
2019,06,17,17,01,22.50
2019,06,17,17,02,25.70
2019,06,17,17,03,22.50
2019,06,17,17,04,20.90
2019,06,17,17,05,14.50
2019,06,17,17,06,24.20
2019,06,17,17,07,19.30
2019,06,17,17,08,14.50
2019,06,17,17,09,9.60
2019,06,17,17,10,14.50
2019,06,17,17,11,16.10
2019,06,17,17,12,6.40
2019,06,17,17,13,6.40
2019,06,17,17,14,16.10
2019,06,17,17,15,30.60
2019,06,17,17,16,12.90
2019,06,17,17,17,24.20
2019,06,17,17,18,17.70
2019,06,17,17,19,16.10
2019,06,17,17,20,8.10
2019,06,17,17,21,17.70
2019,06,17,17,22,22.50
2019,06,17,17,23,30.60
2019,06,17,17,24,11.30
2019,06,17,17,25,12.90
2019,06,17,17,26,29.00
2019,06,17,17,27,22.50
2019,06,17,17,28,16.10
2019,06,17,17,29,6.40
2019,06,17,17,30,24.20
2019,06,17,17,31,9.60
2019,06,17,17,32,16.10
2019,06,17,17,33,22.50
2019,06,17,17,34,16.10
2019,06,17,17,35,4.80
2019,06,17,17,36,14.50
2019,06,17,17,37,12.90
2019,06,17,17,38,14.50
2019,06,17,17,39,14.50
2019,06,17,17,40,17.70
2019,06,17,17,41,22.50
2019,06,17,17,42,29.00
2019,06,17,17,43,12.90
2019,06,17,17,44,16.10
2019,06,17,17,45,16.10
2019,06,17,17,46,9.60
2019,06,17,17,47,17.70
2019,06,17,17,48,24.20
2019,06,17,17,49,14.50
2019,06,17,17,50,17.70
2019,06,17,17,51,16.10
2019,06,17,17,52,12.90
2019,06,17,17,53,14.50
2019,06,17,17,54,20.90
2019,06,17,17,55,9.60
2019,06,17,17,56,20.90
2019,06,17,17,57,25.70
2019,06,17,17,58,9.60
2019,06,17,17,59,11.30
2019,06,17,18,00,12.90
2019,06,17,18,01,16.10
2019,06,17,18,02,9.60
2019,06,17,18,03,14.50
2019,06,17,18,04,9.60
2019,06,17,18,05,17.70
2019,06,17,18,06,17.70
2019,06,17,18,07,11.30
2019,06,17,18,08,19.30
2019,06,17,18,09,22.50
2019,06,17,18,10,16.10
2019,06,17,18,11,8.10
2019,06,17,18,12,14.50
2019,06,17,18,13,9.60
2019,06,17,18,14,12.90
2019,06,17,18,15,17.70
2019,06,17,18,16,27.40
2019,06,17,18,17,16.10
2019,06,17,18,18,9.60
2019,06,17,18,19,6.40
2019,06,17,18,20,8.10
2019,06,17,18,21,12.90
2019,06,17,18,22,6.40
2019,06,17,18,23,8.10
2019,06,17,18,24,4.80
2019,06,17,18,25,6.40
2019,06,17,18,26,11.30
2019,06,17,18,27,11.30
2019,06,17,18,28,12.90
2019,06,17,18,29,11.30
2019,06,17,18,30,16.10
2019,06,17,18,31,8.10
2019,06,17,18,32,17.70
2019,06,17,18,33,9.60
2019,06,17,18,34,19.30
2019,06,17,18,35,12.90
2019,06,17,18,36,9.60
2019,06,17,18,37,19.30
2019,06,17,18,38,12.90
2019,06,17,18,39,16.10
2019,06,17,18,40,19.30
2019,06,17,18,41,24.20
2019,06,17,18,42,9.60
2019,06,17,18,43,12.90
2019,06,17,18,44,17.70
2019,06,17,18,45,19.30
2019,06,17,18,46,19.30
2019,06,17,18,47,12.90
2019,06,17,18,48,16.10
2019,06,17,18,49,8.10
2019,06,17,18,50,17.70
2019,06,17,18,51,11.30
2019,06,17,18,52,16.10
2019,06,17,18,53,14.50
2019,06,17,18,54,11.30
2019,06,17,18,55,8.10
2019,06,17,18,56,14.50
2019,06,17,18,57,11.30
2019,06,17,18,58,6.40
2019,06,17,18,59,12.90
2019,06,17,19,00,24.20
2019,06,17,19,01,17.70
2019,06,17,19,02,22.50
2019,06,17,19,03,12.90
2019,06,17,19,04,12.90
2019,06,17,19,05,9.60
2019,06,17,19,06,20.90
2019,06,17,19,07,9.60
2019,06,17,19,08,12.90
2019,06,17,19,09,14.50
2019,06,17,19,10,11.30
2019,06,17,19,11,9.60
2019,06,17,19,12,6.40
2019,06,17,19,13,6.40
2019,06,17,19,14,14.50
2019,06,17,19,15,22.50
2019,06,17,19,16,12.90
2019,06,17,19,17,9.60
2019,06,17,19,18,22.50
2019,06,17,19,19,17.70
2019,06,17,19,20,12.90
2019,06,17,19,21,12.90
2019,06,17,19,22,14.50
2019,06,17,19,23,14.50
2019,06,17,19,24,25.70
2019,06,17,19,25,17.70
2019,06,17,19,26,17.70
2019,06,17,19,27,19.30
2019,06,17,19,28,17.70
2019,06,17,19,29,16.10
2019,06,17,19,30,14.50
2019,06,17,19,31,12.90
2019,06,17,19,32,9.60
2019,06,17,19,33,6.40
2019,06,17,19,34,14.50
2019,06,17,19,35,14.50
2019,06,17,19,36,14.50
2019,06,17,19,37,12.90
2019,06,17,19,38,9.60
2019,06,17,19,39,6.40
2019,06,17,19,40,9.60
2019,06,17,19,41,4.80
2019,06,17,19,42,12.90
2019,06,17,19,43,9.60
2019,06,17,19,44,22.50
2019,06,17,19,45,9.60
2019,06,17,19,46,16.10
2019,06,17,19,47,17.70
2019,06,17,19,48,22.50
2019,06,17,19,49,16.10
2019,06,17,19,50,17.70
2019,06,17,19,51,19.30
2019,06,17,19,52,9.60
2019,06,17,19,53,14.50
2019,06,17,19,54,14.50
2019,06,17,19,55,16.10
2019,06,17,19,56,11.30
2019,06,17,19,57,11.30
2019,06,17,19,58,12.90
2019,06,17,19,59,9.60
2019,06,17,20,00,12.90
2019,06,17,20,01,6.40
2019,06,17,20,02,6.40
2019,06,17,20,03,4.80
2019,06,17,20,04,12.90
2019,06,17,20,05,6.40
2019,06,17,20,06,4.80
2019,06,17,20,07,9.60
2019,06,17,20,08,6.40
2019,06,17,20,09,8.10
2019,06,17,20,10,6.40
2019,06,17,20,11,8.10
2019,06,17,20,12,9.60
2019,06,17,20,13,16.10
2019,06,17,20,14,16.10
2019,06,17,20,15,14.50
2019,06,17,20,16,14.50
2019,06,17,20,17,6.40
2019,06,17,20,18,16.10
2019,06,17,20,19,12.90
2019,06,17,20,20,8.10
2019,06,17,20,21,12.90
2019,06,17,20,22,8.10
2019,06,17,20,23,9.60
2019,06,17,20,24,14.50
2019,06,17,20,25,8.10
2019,06,17,20,26,8.10
2019,06,17,20,27,6.40
2019,06,17,20,28,4.80
2019,06,17,20,29,4.80
2019,06,17,20,30,3.20
2019,06,17,20,31,8.10
2019,06,17,20,32,3.20
2019,06,17,20,33,12.90
2019,06,17,20,34,14.50
2019,06,17,20,35,6.40
2019,06,17,20,36,6.40
2019,06,17,20,37,8.10
2019,06,17,20,38,4.80
2019,06,17,20,39,14.50
2019,06,17,20,40,4.80
2019,06,17,20,41,16.10
2019,06,17,20,42,16.10
2019,06,17,20,43,8.10
2019,06,17,20,44,12.90
2019,06,17,20,45,12.90
2019,06,17,20,46,12.90
2019,06,17,20,47,12.90
2019,06,17,20,48,12.90
2019,06,17,20,49,16.10
2019,06,17,20,50,6.40